DW5963 Weather Reports


time (UTC)temp
F
wind
direction
speed
knots
gust
knots
rain 1hr
in
rain 24hr
in
rain mn
in
humidity
%
barometer
mb
20260508025548 44 360 0.9 0.0 0.00 0.00 0.00 41 1009.6
20260508025048 45 360 0.0 0.0 0.00 0.00 0.00 40 1009.5
20260508024555 47 360 0.0 0.0 0.00 0.00 0.00 40 1009.4
20260508024048 48 360 0.0 0.0 0.00 0.00 0.00 35 1009.3
20260508023547 49 360 0.0 0.0 0.00 0.00 0.00 35 1009.3
20260508023047 50 360 0.0 0.0 0.00 0.00 0.00 33 1009.2
20260508022547 51 360 0.0 0.0 0.00 0.00 0.00 31 1009.3
20260508022048 53 360 0.0 0.0 0.00 0.00 0.00 31 1009.2
20260508021547 54 360 0.0 0.0 0.00 0.00 0.00 30 1009.2
20260508021046 55 360 0.0 0.0 0.00 0.00 0.00 29 1009.1
20260508020049 57 360 0.0 0.0 0.00 0.00 0.00 27 1008.9
20260508015548 59 360 0.0 0.0 0.00 0.00 0.00 27 1009.0
20260508015048 59 360 0.0 0.0 0.00 0.00 0.00 27 1008.9
20260508014547 60 360 0.0 0.0 0.00 0.00 0.00 27 1009.1
20260508014048 61 360 0.0 0.0 0.00 0.00 0.00 27 1009.1
20260508013546 61 360 0.9 0.0 0.00 0.00 0.00 25 1009.1
20260508013046 62 360 0.9 0.0 0.00 0.00 0.00 25 1009.1
20260508012547 62 360 1.7 0.0 0.00 0.00 0.00 25 1009.1
20260508012049 62 360 2.6 0.0 0.00 0.00 0.00 25 1009.1
20260508011559 63 360 3.5 0.0 0.00 0.00 0.00 24 1009.1
20260508011045 64 360 2.6 0.0 0.00 0.00 0.00 24 1009.1
20260508010056 63 360 3.5 0.0 0.00 0.00 0.00 24 1009.2
20260508005544 63 360 4.3 0.0 0.00 0.00 0.00 24 1009.2
20260508005044 64 360 5.2 0.0 0.00 0.00 0.00 23 1009.3
20260508004555 64 360 6.1 0.0 0.00 0.00 0.00 23 1009.3
20260508004044 65 360 6.1 0.0 0.00 0.00 0.00 22 1009.3
20260508003544 65 360 6.1 0.0 0.00 0.00 0.00 23 1009.3
20260508003045 65 360 5.2 0.0 0.00 0.00 0.00 23 1009.3
20260508002544 65 360 4.3 0.0 0.00 0.00 0.00 22 1009.4
20260508002043 65 360 6.1 0.0 0.00 0.00 0.00 22 1009.4
20260508001545 65 360 6.1 0.0 0.00 0.00 0.00 22 1009.3
20260508001042 65 360 6.1 0.0 0.00 0.00 0.00 23 1009.3
20260508000042 65 360 7.0 0.0 0.00 0.00 0.00 22 1009.6
20260507235542 65 360 7.0 0.0 0.00 0.00 0.00 22 1009.6
20260507235042 65 360 7.8 0.0 0.00 0.00 0.00 22 1009.6
20260507234542 65 360 8.7 0.0 0.00 0.00 0.00 22 1009.6
20260507234041 65 360 7.8 0.0 0.00 0.00 0.00 22 1009.5
20260507233542 64 360 7.8 0.0 0.00 0.00 0.00 23 1009.5
20260507233042 65 360 6.1 0.0 0.00 0.00 0.00 22 1009.4
20260507232540 65 360 6.1 0.0 0.00 0.00 0.00 22 1009.4
20260507232040 65 360 6.1 0.0 0.00 0.00 0.00 21 1009.6
20260507231541 64 360 3.5 0.0 0.00 0.00 0.00 21 1009.8
20260507231038 64 360 2.6 0.0 0.00 0.00 0.00 20 1009.8
20260507230038 63 360 4.3 0.0 0.00 0.00 0.00 21 1009.8
20260507225538 63 360 7.0 0.0 0.00 0.00 0.00 21 1009.8
20260507225038 64 360 7.0 0.0 0.00 0.00 0.00 21 1009.8
20260507224544 63 360 6.1 0.0 0.00 0.00 0.00 21 1009.8
20260507224037 63 360 6.1 0.0 0.00 0.00 0.00 21 1009.9
20260507223541 63 360 3.5 0.0 0.00 0.00 0.00 21 1009.9
20260507223037 63 360 2.6 0.0 0.00 0.00 0.00 21 1009.9
20260507222539 63 360 5.2 0.0 0.00 0.00 0.00 21 1009.9
20260507222035 63 360 7.0 0.0 0.00 0.00 0.00 21 1010.0
20260507221538 63 360 6.1 0.0 0.00 0.00 0.00 22 1010.1
20260507221036 63 360 5.2 0.0 0.00 0.00 0.00 21 1010.2
20260507220036 64 360 6.1 0.0 0.00 0.00 0.00 21 1010.3
20260507215536 63 360 6.1 0.0 0.00 0.00 0.00 21 1010.4
20260507215036 63 360 6.1 0.0 0.00 0.00 0.00 21 1010.4
20260507214535 63 360 7.0 0.0 0.00 0.00 0.00 21 1010.4
20260507214034 64 360 8.7 0.0 0.00 0.00 0.00 20 1010.4
20260507213534 64 360 7.8 0.0 0.00 0.00 0.00 21 1010.5
20260507213033 63 360 7.0 0.0 0.00 0.00 0.00 20 1010.6
20260507212533 63 360 7.8 0.0 0.00 0.00 0.00 20 1010.6
20260507212032 63 360 6.1 0.0 0.00 0.00 0.00 20 1010.7
20260507211534 63 360 6.1 0.0 0.00 0.00 0.00 19 1010.8
20260507211032 64 360 7.0 0.0 0.00 0.00 0.00 19 1010.9
20260507210511 63 360 6.1 0.0 0.00 0.00 0.00 19 1010.9
20260507210011 63 360 5.2 0.0 0.00 0.00 0.00 19 1010.8
20260507205511 63 360 7.8 0.0 0.00 0.00 0.00 19 1011.0
20260507205010 63 360 7.8 0.0 0.00 0.00 0.00 19 1010.8
20260507204510 63 360 5.2 0.0 0.00 0.00 0.00 20 1010.9
20260507204010 63 360 5.2 0.0 0.00 0.00 0.00 20 1010.9
20260507203510 63 360 7.0 0.0 0.00 0.00 0.00 20 1011.0
20260507203059 63 360 6.1 0.0 0.00 0.00 0.00 20 1011.0
20260507202602 62 360 4.3 0.0 0.00 0.00 0.00 21 1011.0
20260507202059 63 360 4.3 0.0 0.00 0.00 0.00 20 1011.0
20260507201559 63 360 6.1 0.0 0.00 0.00 0.00 20 1011.0
20260507201058 64 360 7.0 0.0 0.00 0.00 0.00 20 1011.0
20260507200558 63 360 7.0 0.0 0.00 0.00 0.00 20 1011.0
20260507200057 63 360 6.1 0.0 0.00 0.00 0.00 20 1011.0
20260507195556 63 360 5.2 0.0 0.00 0.00 0.00 20 1011.0
20260507195057 63 360 6.1 0.0 0.00 0.00 0.00 20 1011.0
20260507194556 63 360 5.2 0.0 0.00 0.00 0.00 20 1011.0
20260507194054 62 360 3.5 0.0 0.00 0.00 0.00 20 1011.0
20260507193106 62 360 2.6 0.0 0.00 0.00 0.00 22 1011.1
20260507192552 62 360 4.3 0.0 0.00 0.00 0.00 21 1011.2
20260507192051 62 360 3.5 0.0 0.00 0.00 0.00 21 1011.2
20260507191551 62 360 4.3 0.0 0.00 0.00 0.00 21 1011.4
20260507191049 61 360 4.3 0.0 0.00 0.00 0.00 22 1011.3
20260507190548 61 360 3.5 0.0 0.00 0.00 0.00 23 1011.5
20260507190056 60 360 2.6 0.0 0.00 0.00 0.00 22 1011.5
20260507185547 61 360 3.5 0.0 0.00 0.00 0.00 22 1011.6
20260507185046 60 360 4.3 0.0 0.00 0.00 0.00 22 1011.7
20260507184545 60 360 5.2 0.0 0.00 0.00 0.00 22 1011.8
20260507184048 60 360 5.2 0.0 0.00 0.00 0.00 22 1011.9
20260507183049 59 360 4.3 0.0 0.00 0.00 0.00 23 1012.0
20260507182551 60 360 5.2 0.0 0.00 0.00 0.00 22 1012.1
20260507182047 60 360 5.2 0.0 0.00 0.00 0.00 23 1012.1
20260507181545 60 360 5.2 0.0 0.00 0.00 0.00 22 1012.3
20260507181044 60 360 4.3 0.0 0.00 0.00 0.00 22 1012.4
20260507180544 59 360 3.5 0.0 0.00 0.00 0.00 23 1012.4
20260507180050 59 360 2.6 0.0 0.00 0.00 0.00 23 1012.5
20260507175542 59 360 2.6 0.0 0.00 0.00 0.00 23 1012.4
20260507175040 58 360 2.6 0.0 0.00 0.00 0.00 24 1012.6
20260507174541 58 360 1.7 0.0 0.00 0.00 0.00 23 1012.5
20260507174041 58 360 2.6 0.0 0.00 0.00 0.00 23 1012.6
20260507173036 57 360 3.5 0.0 0.00 0.00 0.00 24 1012.7
20260507172538 57 360 3.5 0.0 0.00 0.00 0.00 23 1012.7
20260507172035 58 360 2.6 0.0 0.00 0.00 0.00 23 1012.7
20260507171534 57 360 2.6 0.0 0.00 0.00 0.00 24 1012.7
20260507171034 57 360 1.7 0.0 0.00 0.00 0.00 24 1012.8
20260507170532 56 360 2.6 0.0 0.00 0.00 0.00 24 1012.7
20260507170034 56 360 2.6 0.0 0.00 0.00 0.00 24 1012.8
20260507165530 55 360 1.7 0.0 0.00 0.00 0.00 24 1012.9
20260507165034 55 360 1.7 0.0 0.00 0.00 0.00 24 1012.9
20260507164531 55 360 2.6 0.0 0.00 0.00 0.00 24 1012.9
20260507164033 55 360 1.7 0.0 0.00 0.00 0.00 24 1013.0
20260507163031 55 360 2.6 0.0 0.00 0.00 0.00 24 1013.0
20260507162529 55 360 3.5 0.0 0.00 0.00 0.00 24 1013.1
20260507162028 54 360 3.5 0.0 0.00 0.00 0.00 25 1013.1
20260507161528 54 360 3.5 0.0 0.00 0.00 0.00 24 1013.1
20260507161027 54 360 2.6 0.0 0.00 0.00 0.00 25 1013.2
20260507160528 53 360 2.6 0.0 0.00 0.00 0.00 26 1013.2
20260507160025 53 360 2.6 0.0 0.00 0.00 0.00 25 1013.2
20260507155525 53 360 2.6 0.0 0.00 0.00 0.00 27 1013.2
20260507155024 52 360 2.6 0.0 0.00 0.00 0.00 28 1013.2
20260507154523 52 360 2.6 0.0 0.00 0.00 0.00 28 1013.3
20260507154022 52 360 2.6 0.0 0.00 0.00 0.00 33 1013.2
20260507153020 51 360 2.6 0.0 0.00 0.00 0.00 34 1013.2
20260507152518 50 360 3.5 0.0 0.00 0.00 0.00 37 1013.1
20260507152018 50 360 2.6 0.0 0.00 0.00 0.00 38 1013.2
20260507151517 49 360 2.6 0.0 0.00 0.00 0.00 38 1013.2
20260507151015 49 360 2.6 0.0 0.00 0.00 0.00 38 1013.2
20260507150517 49 360 2.6 0.0 0.00 0.00 0.00 38 1013.3
20260507150013 48 360 1.7 0.0 0.00 0.00 0.00 39 1013.4
20260507145512 48 360 1.7 0.0 0.00 0.00 0.00 39 1013.4
20260507145011 47 360 1.7 0.0 0.00 0.00 0.00 39 1013.5
20260507144509 47 360 0.9 0.0 0.00 0.00 0.00 39 1013.6
20260507144008 46 360 0.9 0.0 0.00 0.00 0.00 41 1013.6
20260507143005 45 360 0.9 0.0 0.00 0.00 0.00 41 1013.6
20260507142504 44 360 0.9 0.0 0.00 0.00 0.00 42 1013.6
20260507142006 44 360 0.9 0.0 0.00 0.00 0.00 44 1013.6
20260507141502 43 360 0.9 0.0 0.00 0.00 0.00 45 1013.6
20260507141002 43 360 0.9 0.0 0.00 0.00 0.00 45 1013.6
20260507140600 43 360 0.9 0.0 0.00 0.00 0.00 46 1013.6
20260507140122 42 360 0.0 0.0 0.00 0.00 0.00 48 1013.5
20260507135557 41 360 0.0 0.0 0.00 0.00 0.00 50 1013.5
20260507135055 40 360 0.9 0.0 0.00 0.00 0.00 50 1013.6
20260507134555 39 360 0.9 0.0 0.00 0.00 0.00 49 1013.5
20260507134054 39 360 0.0 0.0 0.00 0.00 0.00 51 1013.5
20260507133656 38 360 0.0 0.0 0.00 0.00 0.00 54 1013.5
20260507133053 37 360 0.0 0.0 0.00 0.00 0.00 55 1013.5
20260507132651 37 360 0.0 0.0 0.00 0.00 0.00 56 1013.5
20260507132050 36 360 0.0 0.0 0.00 0.00 0.00 57 1013.6
20260507131601 35 360 0.0 0.0 0.00 0.00 0.00 59 1013.5
20260507131052 34 360 0.0 0.0 0.00 0.00 0.00 61 1013.6
20260507130546 33 360 0.0 0.0 0.00 0.00 0.00 64 1013.6
20260507130051 31 360 0.0 0.0 0.00 0.00 0.00 66 1013.7
20260507125544 30 360 0.0 0.0 0.00 0.00 0.00 65 1013.7
20260507125042 29 360 0.0 0.0 0.00 0.00 0.00 66 1013.8
20260507124552 29 360 0.0 0.0 0.00 0.00 0.00 68 1013.6
20260507124040 28 360 0.0 0.0 0.00 0.00 0.00 70 1013.6
20260507123639 27 360 0.0 0.0 0.00 0.00 0.00 71 1013.5
20260507123052 26 360 0.0 0.0 0.00 0.00 0.00 71 1013.5
20260507122640 26 360 0.0 0.0 0.00 0.00 0.00 72 1013.4
20260507122036 24 360 0.0 0.0 0.00 0.00 0.00 72 1013.3
20260507121541 23 360 0.0 0.0 0.00 0.00 0.00 73 1013.3
20260507121033 22 360 0.9 0.0 0.00 0.00 0.00 73 1013.2
20260507120533 22 360 1.7 0.0 0.00 0.00 0.00 73 1013.2
20260507120032 21 360 1.7 0.0 0.00 0.00 0.00 72 1013.3
20260507115533 20 360 1.7 0.0 0.00 0.00 0.00 73 1013.2
20260507115031 20 360 1.7 0.0 0.00 0.00 0.00 73 1013.3
20260507114531 19 360 1.7 0.0 0.00 0.00 0.00 73 1013.2
20260507114031 18 360 1.7 0.0 0.00 0.00 0.00 72 1013.2
20260507113631 18 360 1.7 0.0 0.00 0.00 0.00 71 1013.1
20260507113035 18 360 0.9 0.0 0.00 0.00 0.00 70 1013.1
20260507112532 19 360 0.9 0.0 0.00 0.00 0.00 70 1013.2
20260507112031 19 360 0.9 0.0 0.00 0.00 0.00 71 1013.2
20260507111532 18 360 1.7 0.0 0.00 0.00 0.00 70 1013.2
20260507111030 18 360 1.7 0.0 0.00 0.00 0.00 69 1013.1
20260507110530 19 360 1.7 0.0 0.00 0.00 0.00 69 1013.3
20260507110029 19 360 1.7 0.0 0.00 0.00 0.00 69 1013.3
20260507105528 19 360 1.7 0.0 0.00 0.00 0.00 70 1013.0
20260507105027 18 360 1.7 0.0 0.00 0.00 0.00 68 1013.0
20260507104526 19 360 0.9 0.0 0.00 0.00 0.00 67 1012.9
20260507104027 20 360 1.7 0.0 0.00 0.00 0.00 68 1013.0
20260507103630 20 360 1.7 0.0 0.00 0.00 0.00 69 1013.0
20260507103024 20 360 0.9 0.0 0.00 0.00 0.00 67 1013.0
20260507102523 20 360 0.0 0.0 0.00 0.00 0.00 68 1013.0
20260507102023 20 360 0.0 0.0 0.00 0.00 0.00 68 1013.0
20260507101530 20 360 0.0 0.0 0.00 0.00 0.00 67 1013.0
20260507101023 20 360 0.0 0.0 0.00 0.00 0.00 66 1013.0
20260507100522 21 360 0.0 0.0 0.00 0.00 0.00 66 1013.0
20260507100031 21 360 0.0 0.0 0.00 0.00 0.00 68 1013.0
20260507095522 20 360 0.0 0.0 0.00 0.00 0.00 69 1012.9
20260507095021 19 360 0.0 0.0 0.00 0.00 0.00 67 1013.1
20260507094522 19 360 0.0 0.0 0.00 0.00 0.00 66 1013.1
20260507094019 20 360 0.0 0.0 0.00 0.00 0.00 66 1013.0
20260507093619 20 360 0.0 0.0 0.00 0.00 0.00 64 1013.0
20260507093103 20 360 0.0 0.0 0.00 0.00 0.00 65 1012.9
20260507092600 21 360 0.9 0.0 0.00 0.00 0.00 64 1013.0
20260507092059 21 360 0.9 0.0 0.00 0.00 0.00 65 1013.0
20260507091606 21 360 0.9 0.0 0.00 0.00 0.00 66 1013.0
20260507091059 20 360 0.9 0.0 0.00 0.00 0.00 66 1013.0
20260507090558 20 360 1.7 0.0 0.00 0.00 0.00 65 1012.9
20260507090005 21 360 1.7 0.0 0.00 0.00 0.00 65 1012.9
20260507085504 21 360 1.7 0.0 0.00 0.00 0.00 65 1013.0
20260507085004 20 360 1.7 0.0 0.00 0.00 0.00 66 1012.9
20260507084502 20 360 1.7 0.0 0.00 0.00 0.00 66 1013.0
20260507084004 20 360 1.7 0.0 0.00 0.00 0.00 65 1013.0
20260507083503 20 360 1.7 0.0 0.00 0.00 0.00 65 1012.9
20260507083002 19 360 1.7 0.0 0.00 0.00 0.00 64 1012.9
20260507082501 20 360 1.7 0.0 0.00 0.00 0.00 63 1013.0
20260507082100 20 360 0.9 0.0 0.00 0.00 0.00 63 1013.0
20260507081559 20 360 0.9 0.0 0.00 0.00 0.00 63 1013.0
20260507081059 21 360 0.9 0.0 0.00 0.00 0.00 63 1013.0
20260507080600 21 360 0.9 0.0 0.00 0.00 0.00 62 1013.0
20260507075558 21 360 1.7 0.0 0.00 0.00 0.00 63 1013.0
20260507075058 21 360 1.7 0.0 0.00 0.00 0.00 62 1013.0
20260507074604 20 360 1.7 0.0 0.00 0.00 0.00 61 1013.0
20260507074059 21 360 1.7 0.0 0.00 0.00 0.00 61 1013.1
20260507073556 21 360 1.7 0.0 0.00 0.00 0.00 61 1013.1
20260507073106 21 360 1.7 0.0 0.00 0.00 0.00 61 1013.1
20260507072555 21 360 1.7 0.0 0.00 0.00 0.00 60 1013.1
20260507072056 21 360 1.7 0.0 0.00 0.00 0.00 59 1013.1
20260507071602 21 360 1.7 0.0 0.00 0.00 0.00 58 1013.1
20260507071051 22 360 1.7 0.0 0.00 0.00 0.00 58 1013.0
20260507070551 23 360 0.9 0.0 0.00 0.00 0.00 58 1013.0
20260507065552 23 360 0.9 0.0 0.00 0.00 0.00 58 1013.0
20260507065049 23 360 1.7 0.0 0.00 0.00 0.00 58 1013.0
20260507064554 23 360 1.7 0.0 0.00 0.00 0.00 57 1013.0
20260507064049 23 360 1.7 0.0 0.00 0.00 0.00 56 1013.0
20260507063549 23 360 1.7 0.0 0.00 0.00 0.00 57 1013.0
20260507063049 23 360 1.7 0.0 0.00 0.00 0.00 55 1012.9
20260507062547 23 360 1.7 0.0 0.00 0.00 0.00 55 1012.8
20260507062047 24 360 1.7 0.0 0.00 0.00 0.00 54 1012.9
20260507061547 25 360 1.7 0.0 0.00 0.00 0.00 54 1012.8
20260507061046 25 360 0.9 0.0 0.00 0.00 0.00 54 1012.9
20260507060546 25 360 0.9 0.0 0.00 0.00 0.00 54 1012.8
20260507055549 25 360 1.7 0.0 0.00 0.00 0.00 52 1012.8
20260507055049 26 360 1.7 0.0 0.00 0.00 0.00 51 1012.9
20260507054555 26 360 1.7 0.0 0.00 0.00 0.00 50 1012.9
20260507054048 26 360 0.9 0.0 0.00 0.00 0.00 50 1012.8
20260507053547 26 360 0.9 0.0 0.00 0.00 0.00 48 1012.9
20260507053049 27 360 0.9 0.0 0.00 0.00 0.00 46 1012.9
20260507052550 29 360 0.0 0.0 0.00 0.00 0.00 45 1012.9
20260507052046 30 360 0.0 0.0 0.00 0.00 0.00 45 1012.9
20260507051547 31 360 0.0 0.0 0.00 0.00 0.00 44 1012.9
20260507051045 32 360 0.0 0.0 0.00 0.00 0.00 44 1012.9
20260507050545 32 360 0.9 0.0 0.00 0.00 0.00 44 1013.0
20260507045542 32 360 0.9 0.0 0.00 0.00 0.00 44 1013.0
20260507045043 32 360 0.0 0.0 0.00 0.00 0.00 45 1013.0
20260507044543 31 360 0.9 0.0 0.00 0.00 0.00 46 1013.0
20260507044047 31 360 0.9 0.0 0.00 0.00 0.00 46 1013.0
20260507043543 31 360 1.7 0.0 0.00 0.00 0.00 44 1013.0
20260507043043 32 360 1.7 0.0 0.00 0.00 0.00 43 1013.1
20260507042541 33 360 1.7 0.0 0.00 0.00 0.00 43 1013.0
20260507042042 33 360 1.7 0.0 0.00 0.00 0.00 43 1013.0
20260507041542 33 360 1.7 0.0 0.00 0.00 0.00 43 1013.1
20260507041042 34 360 0.9 0.0 0.00 0.00 0.00 43 1013.1
20260507040542 33 360 0.9 0.0 0.00 0.00 0.00 43 1013.1
20260507035541 33 360 2.6 0.0 0.00 0.00 0.00 43 1013.2
20260507035041 34 360 2.6 0.0 0.00 0.00 0.00 42 1013.2
20260507034552 34 360 2.6 0.0 0.00 0.00 0.00 40 1013.1
20260507034041 35 360 3.5 0.0 0.00 0.00 0.00 40 1013.2
20260507033541 36 360 2.6 0.0 0.00 0.00 0.00 40 1013.2
20260507033043 36 360 2.6 0.0 0.00 0.00 0.00 39 1013.2
20260507032544 36 360 2.6 0.0 0.00 0.00 0.00 39 1013.2
20260507032041 37 360 3.5 0.0 0.00 0.00 0.00 38 1013.1
20260507031541 37 360 3.5 0.0 0.00 0.00 0.00 38 1013.2
20260507031041 37 360 3.5 0.0 0.00 0.00 0.00 37 1013.1
20260507030541 37 360 1.7 0.0 0.00 0.00 0.00 38 1013.1